Time,TemperatureF,DewpointF,PressureIn,WindDirection,WindDirectionDegrees,WindSpeedMPH,WindSpeedGustMPH,Humidity,HourlyPrecipIn,Conditions,Clouds,dailyrainin,SoftwareType,DateUTC
2013-10-28 00:43:00,45.0,-99.9,30.16,West,273,8.0,9.0,-999,0.00,,,-99.99,,2013-10-28 04:43:00,
2013-10-28 02:43:00,44.0,-99.9,30.19,WNW,302,3.0,7.0,-999,0.00,,,-99.99,,2013-10-28 06:43:00,
2013-10-28 02:52:00,44.0,-99.9,30.19,WNW,302,3.0,7.0,-999,0.00,,,-99.99,,2013-10-28 06:52:00,
2013-10-28 03:42:00,43.0,-99.9,30.20,NW,308,5.0,5.0,-999,0.00,,,-99.99,,2013-10-28 07:42:00,
2013-10-28 03:52:00,43.0,-99.9,30.20,NW,308,5.0,5.0,-999,0.00,,,-99.99,,2013-10-28 07:52:00,
2013-10-28 05:53:00,40.0,-99.9,30.22,WNW,283,-999.0,-999.0,-999,0.00,,,-99.99,,2013-10-28 09:53:00,
2013-10-28 06:43:00,40.0,-99.9,30.22,WNW,283,-999.0,-999.0,-999,0.00,,,-99.99,,2013-10-28 10:43:00,
2013-10-28 07:43:00,39.0,-99.9,30.24,WSW,253,3.0,6.0,-999,0.00,,,-99.99,,2013-10-28 11:43:00,
2013-10-28 07:52:00,39.0,-99.9,30.24,WSW,253,3.0,6.0,-999,0.00,,,-99.99,,2013-10-28 11:52:00,
2013-10-28 08:42:00,41.0,-99.9,30.26,WNW,286,8.0,8.0,-999,0.00,,,-99.99,,2013-10-28 12:42:00,
2013-10-28 08:52:00,41.0,-99.9,30.26,WNW,286,8.0,8.0,-999,0.00,,,-99.99,,2013-10-28 12:52:00,
2013-10-28 09:42:00,43.0,-99.9,30.27,WSW,255,-999.0,5.0,-999,0.00,,,-99.99,,2013-10-28 13:42:00,
2013-10-28 09:52:00,43.0,-99.9,30.27,WSW,255,-999.0,5.0,-999,0.00,,,-99.99,,2013-10-28 13:52:00,
2013-10-28 10:42:00,46.0,-99.9,30.27,NW,305,-999.0,6.0,-999,0.00,,,-99.99,,2013-10-28 14:42:00,
2013-10-28 10:52:00,46.0,-99.9,30.27,NW,305,-999.0,6.0,-999,0.00,,,-99.99,,2013-10-28 14:52:00,
2013-10-28 10:53:00,53.0,-99.9,30.26,WSW,246,-999.0,-999.0,-999,0.00,,,-99.99,,2013-10-28 14:53:00,
2013-10-28 11:43:00,53.0,-99.9,30.26,WSW,246,-999.0,-999.0,-999,0.00,,,-99.99,,2013-10-28 15:43:00,
2013-10-28 13:42:00,58.0,-99.9,30.23,WSW,253,11.0,12.0,-999,0.00,,,-99.99,,2013-10-28 17:42:00,
2013-10-28 13:52:00,58.0,-99.9,30.23,WSW,253,11.0,12.0,-999,0.00,,,-99.99,,2013-10-28 17:52:00,
2013-10-28 14:42:00,59.0,-99.9,30.21,WSW,239,8.0,14.0,-999,0.00,,,-99.99,,2013-10-28 18:42:00,
2013-10-28 14:52:00,59.0,-99.9,30.21,WSW,239,8.0,14.0,-999,0.00,,,-99.99,,2013-10-28 18:52:00,
2013-10-28 16:42:00,58.0,-99.9,30.20,SSW,205,2.0,12.0,-999,0.00,,,-99.99,,2013-10-28 20:42:00,
2013-10-28 16:52:00,58.0,-99.9,30.20,SSW,205,2.0,12.0,-999,0.00,,,-99.99,,2013-10-28 20:52:00,
2013-10-28 16:53:00,57.0,-99.9,30.20,WSW,240,11.0,11.0,-999,0.00,,,-99.99,,2013-10-28 20:53:00,
2013-10-28 17:43:00,57.0,-99.9,30.20,WSW,240,11.0,11.0,-999,0.00,,,-99.99,,2013-10-28 21:43:00,
2013-10-28 17:53:00,55.0,-99.9,30.22,SW,223,3.0,4.0,-999,0.00,,,-99.99,,2013-10-28 21:53:00,
2013-10-28 18:43:00,55.0,-99.9,30.22,SW,223,3.0,4.0,-999,0.00,,,-99.99,,2013-10-28 22:43:00,
2013-10-28 18:53:00,55.0,-99.9,30.24,South,188,-999.0,6.0,-999,0.00,,,-99.99,,2013-10-28 22:53:00,
2013-10-28 19:43:00,55.0,-99.9,30.24,South,188,-999.0,6.0,-999,0.00,,,-99.99,,2013-10-28 23:43:00,
2013-10-28 20:42:00,53.0,-99.9,30.25,SSW,213,-999.0,-999.0,-999,0.00,,,-99.99,,2013-10-29 00:42:00,
2013-10-28 20:52:00,53.0,-99.9,30.25,SSW,213,-999.0,-999.0,-999,0.00,,,-99.99,,2013-10-29 00:52:00,
2013-10-28 20:53:00,52.0,-99.9,30.27,SSW,213,-999.0,-999.0,-999,0.00,,,-99.99,,2013-10-29 00:53:00,
2013-10-28 21:42:00,52.0,-99.9,30.27,SSW,213,-999.0,-999.0,-999,0.00,,,-99.99,,2013-10-29 01:42:00,
2013-10-28 22:53:00,49.0,-99.9,30.31,North,1,5.0,5.0,-999,0.00,,,-99.99,,2013-10-29 02:53:00,
2013-10-28 23:40:00,-999.0,-99.9,30.31,North,1,5.0,5.0,-999,0.00,,,-99.99,,2013-10-29 03:40:00,
2013-10-28 23:48:00,49.0,-99.9,30.31,North,1,5.0,5.0,-999,0.00,,,-99.99,,2013-10-29 03:48:00,
2013-10-28 23:53:00,53.0,-99.9,30.32,NNE,17,3.0,8.0,-999,0.00,,,-99.99,,2013-10-29 03:53:00,